Regional Weather Roundup
Issued by NWS

Home | Current Version | Previous Version | Text Only | Print | Product List | Glossary Off
Versions: 1 2 3 4 5 6 7 8 9 10 11 12 13 14 15 16 17 18 19 20 21 22 23 24 25 26 27 28 29 30 31 32 33 34 35 36 37 38 39 40 41 42 43 44 45 46 47 48 49 50

000
ASUS43 KIND 191109
RWRIN

WEATHER ROUNDUP FOR INDIANA
NATIONAL WEATHER SERVICE INDIANAPOLIS IN
700 AM EDT FRI SEP 19 2014

NOTE: "FAIR" INDICATES FEW OR NO CLOUDS BELOW 12,000 FEET WITH NO
SIGNIFICANT WEATHER AND/OR OBSTRUCTIONS TO VISIBILITY.

* - STATION DOES NOT REPORT WEATHER SUCH AS PRECIPITATION OR FOG.

+ - STATION NOT QUALITY CONTROLLED BY THE NATIONAL WEATHER SERVICE.
    USE DATA WITH CAUTION...ESPECIALLY DEWPOINT AND RELATIVE
    HUMIDITY OBSERVATIONS.

INZ001>003-010>013-019-020-191200-
NORTHWEST INDIANA

CITY           SKY/WX    TMP DP  RH WIND       PRES   REMARKS
GARY /AIRPORT/ CLEAR     55  50  82 SE8       30.17R
KNOX *+        CLEAR     47  45  91 CALM      30.18R
LA PORTE +       N/A     46  46 100 E5        30.20R FOG
MICHIGAN CITY+ CLEAR     52  52 100 SE6       30.19R
MONTICELLO +   CLEAR     50  49  95 E3        30.17R
RENSSELAER +   CLEAR     46  46 100 NE6       30.17S FOG
VALPARAISO     CLEAR     48  46  93 E6        30.19R FOG

$$

LMZ046-743>745-191200-
SOUTHERN LAKE MICHIGAN

STATION/POSITION TIME  TEMP WIND        PRES
                       AIR  DIR/SP/G
                 (UTC) (F)  (DEG/KT/KT) (MB)
MICHIGAN CITY    1100   55  110/ 11/ 14   N/A

$$

INZ004-005-014>016-021>024-191200-
NORTH CENTRAL INDIANA

CITY           SKY/WX    TMP DP  RH WIND       PRES   REMARKS
ELKHART        CLEAR     48  48 100 E5        30.22  FOG
GOSHEN         CLEAR     51  49  92 E5        30.20R FOG
LOGANSPORT +   CLEAR     48  46  93 E5        30.19R
PERU/GRISSOM   CLEAR     50  50 100 E5        30.18R
ROCHESTER +    CLEAR     52  52 100 CALM      30.20R FOG
SOUTH BEND     CLEAR     52  50  93 E7        30.21R FOG
WARSAW +       CLEAR     50  50 100 E6        30.20R FOG

$$

INZ006>009-017-018-025>027-191200-
NORTHEAST INDIANA

CITY           SKY/WX    TMP DP  RH WIND       PRES   REMARKS
ANGOLA *+      MOCLDY    50  48  93 SE6       30.22R
AUBURN +       CLEAR     46  45  93 E5        30.22R FOG
FORT WAYNE     PTCLDY    48  47  96 E7        30.21R FOG
HUNTINGTON +   FOG       49  49  99 E5        30.20R VSB 1/4

$$

INZ028-029-035-036-043>045-051>053-191200-
WEST CENTRAL INDIANA

CITY           SKY/WX    TMP DP  RH WIND       PRES   REMARKS
GREENCASTLE +  CLEAR     48  45  87 E3        30.15S
LAFAYETTE      CLEAR     49  47  93 NE5       30.16R
TERRE HAUTE    CLEAR     48  47  96 CALM      30.13S

$$

INZ030>032-037>040-046>048-054>057-064-065-191200-
CENTRAL INDIANA

CITY           SKY/WX    TMP DP  RH WIND       PRES   REMARKS
CP ATTERBURY + CLEAR     43  41  93 CALM      30.16R FOG
FRANKFORT +    CLEAR    N/A N/A N/A E5        30.17R HAZE
INDIANAPOLIS   CLEAR     53  47  79 E8        30.14S
-EAGLE CREEK   CLEAR     51  47  86 E3        30.16R
KOKOMO *+      CLEAR     46  45  93 E3        30.19R
MARION +       CLEAR     48  46  92 E6        30.19R
MT COMFORT *+  CLEAR     48  48 100 E5        30.17S
SHELBYVILLE    CLEAR     49  45  86 NE6       30.16R
ZIONSVILLE +   CLEAR     49  45  88 CALM      30.17R

$$

INZ033-034-041-042-049-050-058-059-191200-
EAST CENTRAL INDIANA

CITY           SKY/WX    TMP DP  RH WIND       PRES   REMARKS
MUNCIE         CLEAR     46  44  93 E5        30.18R

$$

INZ060-061-067>069-081>083-085>088-191200-
SOUTHWEST INDIANA

CITY           SKY/WX    TMP DP  RH WIND       PRES   REMARKS
EVANSVILLE     CLEAR     55  49  80 NE5       30.09F
WASHINGTON +   CLEAR     47  47 100 CALM      30.11S

$$

INZ062-063-066-070>080-084-089>092-191200-
SOUTH CENTRAL AND SOUTHEAST INDIANA

CITY           SKY/WX    TMP DP  RH WIND       PRES   REMARKS
BLOOMINGTON    CLEAR     47  45  93 CALM      30.14S
SEYMOUR +      CLEAR     45  43  93 CALM      30.14

$$



USA.gov is the U.S. government's official web portal to all federal, state and local government web resources and services.